Location: Canazei
(46.4667°N, 11.7667°E)
Time: 18:32:59
(UTC+00:00)

CZ-2C R/B - Pass Details

Date: 21 April 2021
Orbit: 501 x 565 km, 97.7° (Epoch: 12 May)

Event Time Altitude Azimuth Distance (km) Brightness Sun altitude
Rises 03:38:08 0° 6° (N) 2,641 6.8 -6.8°
Reaches altitude 10° 03:40:18 10° 358° (N) 1,758 5.7 -6.4°
Maximum altitude 03:43:50 39° 289° (WNW) 794 3.3 -5.9°
Drops below altitude 10° 03:47:26 10° 220° (SW) 1,778 4.9 -5.3°
Enters shadow 03:49:16 - 213° (SSW) 2,521 5.7 -5.0°
